{"data":{"norad_id":56344,"epoch":"2026-09-20T13:33:54.293472Z","epoch_age_seconds":103179,"freshness":"FRESH","line1":"1 56344U 23058AD  26263.56521173 -.00000274  00000+0 -61512-5 0  9993","line2":"2 56344  97.2847 260.2994 0001629  95.9685 264.1743 15.33437176187646","mean_motion":15.33437176,"eccentricity":0.0001629,"inclination_deg":97.2847,"raan_deg":260.2994,"arg_perigee_deg":95.9685,"mean_anomaly_deg":264.1743,"bstar":-6.1512e-6,"rev_number":18764,"period_min":93.906683791003,"perigee_km":464.45161400392,"apogee_km":466.681292589,"semimajor_km":6843.7034532965,"source":"CELESTRAK","updated_at":"2026-09-21T09:00:33.405914Z"}}